Owen Roberts, Cayman Islands

2:59 AM EST on February 18, 2018 (GMT -0500)
Roberts International

Weather History for MWCR - April, 2013

Change the Weather History Date:

Thursday, April 11, 2013

  Actual Average Record
Temperature  
Mean Temperature 82 °F -  
Max Temperature 87 °F 84 °F 87 °F (2007)
Min Temperature 78 °F 76 °F 71 °F (2003)
Cooling Degree Days 18    
Growing Degree Days 32 (Base 50)    
Moisture  
Dew Point 77 °F    
Average Humidity 81    
Maximum Humidity 94    
Minimum Humidity 69    
Precipitation  
Precipitation 0.00 in - - ()
Sea Level Pressure  
Sea Level Pressure 29.89 in    
Wind  
Wind Speed 9 mph ()    
Max Wind Speed 21 mph    
Max Gust Speed -    
Visibility 6.2 miles    
Events      
Averages and records for this station are not official NWS values.
T = Trace of Precipitation, MM = Missing Value Source: Averaged Metar Reports

Daily Weather History Graph

Daily Weather History Graph

Search for Another Location

Airport or City:

Trip Planner

Search our weather history database for the weather conditions in past years. The results will help you decide how hot, cold, wet, or windy it might be!

Date:

Astronomy

Apr. 11, 2013 Rise Set
Actual Time 6:10 AM EST 6:42 PM EST
Civil Twilight 5:48 AM EST 7:04 PM EST
Nautical Twilight 5:22 AM EST 7:30 PM EST
Astronomical Twilight 4:56 AM EST 7:56 PM EST
Moon 6:53 AM EST (4/11) 7:59 PM EST (4/11)
Length of Visible Light 13h 15m
Length of Day
12h 31m
New Moon, 2% of the Moon is Illuminated
Apr 11
New Moon
Apr 18
First Quarter
Apr 25
Full
May 2
Last Quarter
May 9
New

Hourly Weather History & Observations

Time (EST) Temp. Heat Index Dew Point Humidity Pressure Visibility Wind Dir Wind Speed Gust Speed Precip Events Conditions
6:00 AM 78.8 °F - 77.0 °F 94% 29.89 in 6.2 mi SE 4.6 mph - N/A   Partly Cloudy
7:00 AM 80 °F - 76 °F 84% 29.91 in 6 mi SE 5.8 mph - -   Scattered Clouds
7:00 AM 80.6 °F 86.2 °F 75.2 °F 84% 29.89 in 6.2 mi SE 5.8 mph - N/A   Partly Cloudy
8:00 AM 82.4 °F 90.9 °F 77.0 °F 84% 29.92 in 6.2 mi SE 6.9 mph - N/A   Partly Cloudy
9:00 AM 84.2 °F 94.1 °F 77.0 °F 79% 29.92 in 6.2 mi SE 9.2 mph - N/A   Partly Cloudy
10:00 AM 84.2 °F 94.1 °F 77.0 °F 79% 29.95 in 6.2 mi SE 8.1 mph - N/A   Partly Cloudy
11:00 AM 86.0 °F 96.9 °F 77.0 °F 74% 29.92 in 6.2 mi SSE 9.2 mph - N/A   Partly Cloudy
12:00 PM 86.0 °F 96.9 °F 77.0 °F 74% 29.92 in 6.2 mi SE 9.2 mph - N/A   Partly Cloudy
12:52 PM 86.0 °F 96.9 °F 77.0 °F 74% 29.89 in 6.2 mi SE 18.4 mph - N/A   Partly Cloudy
1:00 PM 86 °F - 77 °F 69% 29.91 in 6 mi SE 18.4 mph - -   Haze
1:55 PM 82.4 °F 90.9 °F 77.0 °F 84% 29.89 in 6.2 mi ESE 12.7 mph - N/A   Scattered Clouds
2:54 PM 84.2 °F 92.3 °F 75.2 °F 74% 29.86 in 6.2 mi East 20.7 mph - N/A   Partly Cloudy
3:51 PM 86.0 °F 96.9 °F 77.0 °F 74% 29.86 in 6.2 mi SE 11.5 mph - N/A   Partly Cloudy
4:54 PM 86.0 °F 96.9 °F 77.0 °F 74% 29.83 in 6.2 mi SE 15.0 mph - N/A   Partly Cloudy
5:54 PM 82.4 °F 90.9 °F 77.0 °F 84% 29.83 in 6.2 mi SE 11.5 mph - N/A   Partly Cloudy
6:51 PM 80.6 °F 87.1 °F 77.0 °F 89% 29.86 in 6.2 mi SE 16.1 mph - N/A   Partly Cloudy
7:00 PM 81 °F - 77 °F 84% 29.86 in 6 mi SE 16.1 mph - -   Partly Cloudy
7:51 PM 80.6 °F 87.1 °F 77.0 °F 89% 29.86 in 6.2 mi SE 11.5 mph - N/A   Partly Cloudy
8:50 PM 80.6 °F 87.1 °F 77.0 °F 89% 29.89 in 6.2 mi SE 15.0 mph - N/A   Mostly Cloudy
9:50 PM 80.6 °F 87.1 °F 77.0 °F 89% 29.92 in 6.2 mi SE 15.0 mph - N/A   Partly Cloudy